TimeCST,TemperatureF,Dew PointF,Humidity,Sea Level PressureIn,VisibilityMPH,Wind Direction,Wind SpeedMPH,Gust SpeedMPH,PrecipitationIn,Events,Conditions,WindDirDegrees,DateUTC
12:58 AM,36.0,32.0,86,30.41,10.0,North,8.1,-,N/A,,Clear,360,2012-11-13 06:58:00
1:58 AM,34.0,30.9,89,30.42,10.0,North,6.9,-,N/A,,Clear,360,2012-11-13 07:58:00
2:58 AM,34.0,30.9,89,30.43,10.0,North,4.6,-,N/A,,Clear,350,2012-11-13 08:58:00
3:58 AM,33.1,30.0,89,30.43,10.0,North,5.8,-,N/A,,Clear,360,2012-11-13 09:58:00
4:58 AM,33.1,30.0,89,30.44,10.0,North,8.1,-,N/A,,Clear,350,2012-11-13 10:58:00
5:58 AM,33.1,28.9,85,30.45,10.0,North,6.9,-,N/A,,Clear,350,2012-11-13 11:58:00
6:58 AM,35.1,28.9,78,30.46,10.0,North,9.2,-,N/A,,Clear,350,2012-11-13 12:58:00
7:58 AM,41.0,30.0,65,30.46,10.0,North,10.4,-,N/A,,Clear,10,2012-11-13 13:58:00
8:58 AM,45.0,27.0,49,30.46,10.0,NNE,16.1,24.2,N/A,,Clear,20,2012-11-13 14:58:00
9:58 AM,48.9,24.1,38,30.45,10.0,NNE,19.6,27.6,N/A,,Clear,30,2012-11-13 15:58:00
10:58 AM,52.0,27.0,38,30.43,10.0,North,13.8,19.6,N/A,,Clear,10,2012-11-13 16:58:00
11:58 AM,54.0,26.1,34,30.39,10.0,NNE,11.5,-,N/A,,Clear,20,2012-11-13 17:58:00
12:58 PM,55.0,26.1,33,30.35,10.0,North,15.0,23.0,N/A,,Clear,360,2012-11-13 18:58:00
1:58 PM,55.0,26.1,33,30.34,10.0,NNE,16.1,-,N/A,,Clear,20,2012-11-13 19:58:00
2:58 PM,55.0,27.0,34,30.32,10.0,North,15.0,-,N/A,,Clear,10,2012-11-13 20:58:00
3:58 PM,54.0,28.0,37,30.32,10.0,NNE,11.5,-,N/A,,Clear,20,2012-11-13 21:58:00
4:58 PM,48.9,28.9,46,30.32,10.0,North,6.9,-,N/A,,Clear,10,2012-11-13 22:58:00
5:58 PM,42.1,35.1,76,30.33,10.0,NNW,5.8,-,N/A,,Clear,330,2012-11-13 23:58:00
6:58 PM,39.9,36.0,86,30.35,10.0,Calm,Calm,-,N/A,,Clear,0,2012-11-14 00:58:00
7:58 PM,41.0,34.0,76,30.34,10.0,North,8.1,-,N/A,,Clear,350,2012-11-14 01:58:00
8:58 PM,41.0,33.1,73,30.35,10.0,Calm,Calm,-,N/A,,Clear,0,2012-11-14 02:58:00
9:58 PM,39.0,34.0,82,30.35,10.0,Calm,Calm,-,N/A,,Clear,0,2012-11-14 03:58:00
10:58 PM,37.0,33.1,86,30.34,10.0,NNW,3.5,-,N/A,,Clear,330,2012-11-14 04:58:00
11:58 PM,37.0,32.0,82,30.32,10.0,NNW,4.6,-,N/A,,Clear,330,2012-11-14 05:58:00